User: anonymous   Login
Location: ????
(30.1475°N, 31.1342°E)
Time: 07:42:43
(UTC+00:00)
Language:

SL-24 R/B - RUBIN 2 - Orbit

View from above orbital plane
View from above orbital plane
View from above satellite
View from above satellite

Ground track
Ground track

The orbit data is extracted from the following two-line orbital elements,

1 27610U 02058F   24113.79787957  .00000738  00000-0  20078-3 0  9999
2 27610  64.5567 242.4567 0317232 278.3534 235.0412 14.28779360112661
Epoch (UTC): 22 April 2024 19:08:56
Eccentricity: 0.0317232
inclination: 64.5567°
perigee height: 568 km
apogee height: 1023 km
right ascension of ascending node: 242.4567°
argument of perigee: 278.3534°
revolutions per day: 14.28779360
mean anomaly at epoch: 235.0412°
orbit number at epoch: 11266

The dashed part of the orbit path shows where the satellite is in the earth's shadow,  

DLR